GFSFLT2_prec_pwat_234.txt.gz
Precipitable_Water
0.90 0.97 0.98 1.00 1.00 1.04 1.05 1.00 0.99 0.98 0.93 0.90 0.94 0.92 0.90 0.95 0.96 0.98 1.00 0.98 0.96 1.02 1.02 0.98 0.94 0.88 0.84 0.88 1.03 1.15 1.23 1.26
0.89 0.95 0.97 1.01 1.03 1.02 0.99 0.99 1.00 0.98 0.95 0.89 0.92 0.94 0.91 0.93 0.95 0.98 0.99 0.97 0.99 1.05 1.05 1.04 0.97 0.94 0.90 0.87 0.97 1.21 1.33 1.28
0.91 0.92 0.93 0.95 1.00 1.00 0.96 0.99 1.01 1.02 0.99 0.94 0.91 0.92 0.90 0.91 0.92 0.96 1.00 1.01 1.02 1.07 1.10 1.10 1.05 0.98 0.95 0.98 1.06 1.29 1.38 1.52
0.89 0.94 0.92 0.92 0.88 0.93 0.96 0.98 1.02 1.03 1.03 0.99 0.90 0.93 0.91 0.98 0.92 0.99 0.97 1.05 1.07 1.08 1.12 1.15 1.15 1.13 1.08 1.08 1.12 1.26 1.34 1.43
0.88 0.94 0.98 0.94 0.93 0.91 0.92 0.96 0.96 1.00 1.03 1.05 0.98 0.94 0.98 1.02 1.03 1.01 0.95 1.04 1.07 1.10 1.09 1.14 1.15 1.21 1.33 1.29 1.16 1.23 1.21 1.29
0.85 0.94 0.96 1.00 1.06 0.99 0.87 0.89 0.92 0.93 1.00 1.06 0.99 1.03 1.06 0.94 1.04 1.03 0.95 0.95 1.02 1.07 1.08 1.09 1.13 1.20 1.35 1.38 1.32 1.26 1.23 1.28
0.83 0.89 0.92 0.96 1.05 1.04 0.93 0.90 0.88 0.93 0.96 1.04 1.02 1.04 1.09 1.07 1.03 1.10 1.01 0.95 0.95 1.04 1.05 1.08 1.07 1.11 1.19 1.26 1.25 1.23 1.20 1.20
0.89 0.87 0.91 0.93 0.97 1.06 1.00 0.98 0.96 0.93 0.96 1.01 1.04 1.02 1.10 1.10 1.06 1.11 1.08 1.02 1.01 0.98 1.06 1.05 1.10 1.10 1.09 1.16 1.14 1.15 1.13 1.08
0.86 0.90 0.94 0.90 0.90 1.06 1.05 1.03 1.03 0.99 0.99 1.01 1.01 1.01 1.05 1.07 1.06 1.04 1.05 1.05 1.07 1.06 1.03 1.11 1.10 1.14 1.12 1.12 1.11 1.11 1.08 1.10
0.88 0.91 0.94 0.93 0.89 0.97 1.03 1.04 1.04 1.01 1.05 1.05 1.05 0.99 1.00 1.02 1.00 0.99 1.05 1.06 1.04 1.07 1.03 1.01 1.05 1.05 1.07 1.08 1.09 1.10 1.08 1.09
0.85 0.88 0.91 0.94 0.97 0.95 1.03 1.02 1.07 1.09 1.05 1.02 1.06 1.05 0.98 0.98 0.94 0.96 1.00 1.00 1.05 1.04 1.01 1.02 0.98 1.00 0.99 1.04 1.07 1.05 1.08 1.12
0.86 0.85 0.90 0.99 1.03 1.02 1.01 1.04 1.07 1.10 1.09 1.05 1.06 1.07 1.03 0.94 0.98 0.93 0.98 0.94 0.96 0.98 0.98 1.00 0.98 0.97 1.00 0.97 1.03 1.05 1.07 1.06
0.87 0.84 0.84 0.95 0.97 0.94 0.93 0.86 0.97 1.02 1.06 1.09 1.07 1.07 1.09 1.05 0.97 0.98 0.95 0.92 0.89 0.91 0.94 0.93 0.94 0.98 0.93 0.93 1.00 1.07 1.05 1.04
0.88 0.85 0.87 0.88 0.91 0.92 0.94 0.95 0.96 1.00 1.06 1.06 1.07 1.08 1.09 1.09 1.04 0.96 0.96 0.93 0.93 0.91 0.89 0.88 0.92 1.01 0.87 0.88 0.76 0.86 0.95 1.04
0.92 0.89 0.89 0.91 0.92 0.96 0.96 0.99 1.02 0.97 0.96 0.95 0.98 1.02 1.06 1.05 1.04 1.04 1.01 1.00 0.93 0.93 0.93 0.89 0.83 0.93 1.00 0.86 0.76 0.70 0.86 1.03
1.02 0.98 0.95 0.92 0.98 0.94 0.85 0.78 0.73 0.79 0.84 0.92 0.92 1.00 1.02 1.07 1.09 1.09 1.07 1.04 0.97 0.97 1.01 0.95 0.93 0.84 0.97 1.00 0.98 0.97 0.84 0.80
0.95 1.08 1.06 1.01 0.94 0.92 0.90 0.89 0.87 0.87 0.94 0.92 0.95 0.99 1.02 1.03 1.07 1.10 1.08 1.08 1.04 0.99 1.01 1.01 1.01 0.93 0.92 0.97 0.98 0.99 1.00 0.91
0.66 0.73 0.90 1.13 1.05 0.96 0.91 0.83 0.80 0.80 0.84 0.84 0.88 0.95 1.00 1.02 1.03 1.05 1.08 1.08 1.06 1.07 1.04 1.06 1.04 1.04 1.01 0.99 0.98 0.92 0.91 0.94
0.53 0.51 0.47 0.63 0.94 1.03 0.94 0.88 0.85 0.75 0.77 0.83 0.84 0.86 0.91 0.90 0.93 0.96 1.00 1.04 1.07 1.11 1.09 1.07 1.08 1.02 1.04 1.00 1.05 1.02 1.08 1.07
0.38 0.47 0.52 0.51 0.47 0.59 0.98 0.96 0.94 0.86 0.82 0.88 0.93 0.92 0.91 0.95 0.96 0.96 0.97 1.05 1.09 1.09 1.09 1.07 1.08 1.10 1.04 1.07 1.08 1.08 1.11 1.11

GFSFLT2_prec_pwat_237.txt.gz
Precipitable_Water
0.82 0.91 0.98 1.00 1.01 1.01 0.99 0.99 0.94 0.90 0.86 0.89 0.89 0.89 0.93 0.98 0.95 0.96 0.93 0.91 0.90 0.88 0.87 0.86 0.82 0.78 0.88 0.97 1.06 1.13 1.18 1.19
0.80 0.86 0.95 1.01 1.04 1.02 1.00 0.94 0.92 0.90 0.86 0.85 0.84 0.85 0.89 0.93 0.95 0.97 0.96 0.95 0.94 0.97 0.96 0.93 0.88 0.81 0.85 1.01 1.14 1.21 1.28 1.33
0.82 0.82 0.89 0.95 1.00 1.04 1.03 0.96 0.93 0.92 0.88 0.84 0.87 0.85 0.86 0.91 0.93 0.95 0.94 0.94 0.98 1.03 1.04 0.97 0.93 0.86 0.85 0.93 1.21 1.33 1.37 1.40
0.77 0.81 0.82 0.90 0.95 1.01 1.01 1.00 0.99 0.95 0.91 0.86 0.84 0.85 0.82 0.84 0.89 0.91 0.92 0.93 0.98 1.04 1.06 1.05 1.00 0.92 0.92 0.98 1.14 1.25 1.32 1.39
0.73 0.77 0.82 0.83 0.86 0.92 0.94 0.97 0.98 0.98 0.95 0.90 0.84 0.86 0.84 0.87 0.86 0.94 0.92 0.95 0.97 1.00 1.04 1.07 1.08 1.06 1.13 1.19 1.17 1.14 1.27 1.31
0.71 0.75 0.78 0.79 0.79 0.82 0.84 0.86 0.91 0.93 0.95 0.95 0.87 0.86 0.90 0.92 0.91 0.92 0.91 0.94 0.96 0.99 1.00 1.03 1.07 1.12 1.24 1.25 1.26 1.22 1.25 1.27
0.72 0.76 0.75 0.76 0.79 0.77 0.78 0.80 0.83 0.86 0.91 0.97 0.93 0.89 0.91 0.93 0.96 0.98 0.95 0.91 0.94 0.97 0.99 1.00 1.01 1.04 1.19 1.25 1.25 1.25 1.24 1.23
0.76 0.75 0.78 0.77 0.82 0.81 0.76 0.78 0.80 0.82 0.85 0.89 0.93 0.93 0.99 1.00 1.00 1.00 1.02 1.00 0.89 0.93 0.95 0.97 0.98 1.02 1.00 1.18 1.24 1.24 1.22 1.21
0.82 0.78 0.80 0.79 0.85 0.84 0.85 0.80 0.81 0.81 0.81 0.85 0.87 0.88 0.94 0.98 0.97 0.97 1.01 1.06 0.99 0.89 0.94 0.97 1.00 1.04 1.03 1.03 1.02 1.04 1.03 1.03
0.84 0.88 0.81 0.81 0.83 0.89 0.86 0.89 0.84 0.86 0.89 0.88 0.89 0.88 0.89 0.98 0.98 0.95 1.01 1.02 0.99 0.94 0.91 0.91 0.92 0.95 0.97 1.00 1.03 1.03 1.02 1.02
0.85 0.88 0.82 0.83 0.83 0.94 0.92 0.91 0.90 0.88 0.94 0.95 0.96 0.94 0.90 0.92 0.99 0.97 0.98 1.00 0.96 0.96 0.94 0.92 0.89 0.93 0.96 1.00 1.04 1.03 1.03 1.04
0.99 0.90 0.88 0.87 0.89 0.88 0.99 0.95 0.94 0.95 0.92 0.95 0.99 0.99 0.96 0.93 0.95 0.97 0.98 0.95 0.97 0.98 0.94 0.98 0.93 0.90 0.93 0.93 0.98 1.02 1.06 1.04
0.99 0.88 0.90 0.90 0.88 0.80 0.83 0.86 0.90 0.93 0.97 0.98 0.99 1.02 1.01 0.96 0.94 0.94 0.94 0.88 0.87 0.92 0.94 0.91 0.89 0.95 0.90 0.88 0.93 0.98 0.97 1.04
1.00 0.97 0.89 0.89 0.90 0.91 0.86 0.89 0.97 0.97 1.03 1.03 1.03 1.02 1.03 1.02 0.97 0.94 0.94 0.90 0.89 0.89 0.90 0.88 0.90 0.95 0.83 0.83 0.69 0.79 0.88 0.97
1.02 0.98 0.99 0.95 0.89 0.97 1.02 1.01 0.98 0.98 0.96 0.96 0.98 1.03 1.01 0.99 0.99 0.98 0.97 0.95 0.87 0.89 0.91 0.88 0.81 0.94 0.96 0.83 0.68 0.60 0.72 0.87
1.04 1.01 1.00 1.04 1.03 0.93 0.85 0.80 0.76 0.79 0.83 0.91 0.96 1.01 0.99 0.97 0.97 0.98 0.98 0.99 0.93 0.89 0.93 0.91 0.92 0.82 0.98 0.97 0.92 0.84 0.70 0.68
1.00 1.02 0.97 1.00 1.05 1.02 0.94 0.84 0.80 0.86 0.91 0.88 0.92 0.96 1.00 0.99 0.98 0.96 0.96 0.97 0.99 0.97 0.95 0.92 0.93 0.87 0.87 0.90 0.92 0.91 0.90 0.78
1.04 1.04 1.06 1.05 0.99 1.00 0.98 0.90 0.88 0.87 0.87 0.86 0.88 0.93 0.97 1.01 1.00 0.99 0.98 0.98 0.95 0.95 0.97 0.97 0.94 0.95 0.93 0.94 0.89 0.82 0.79 0.82
1.17 1.15 1.08 1.06 0.95 0.92 0.91 0.89 0.85 0.81 0.82 0.83 0.86 0.89 0.91 0.89 0.92 0.95 0.95 0.95 0.96 0.98 0.99 0.98 0.96 0.95 0.95 0.92 0.99 0.95 0.97 0.94
1.04 1.17 1.13 1.16 1.07 0.90 0.92 0.85 0.85 0.86 0.87 0.87 0.86 0.86 0.86 0.88 0.90 0.95 0.96 0.98 1.00 0.99 0.97 1.00 1.01 0.97 0.95 0.97 0.97 0.98 1.04 1.02

GFSFLT2_prec_pwat_240.txt.gz
Precipitable_Water
0.92 0.97 0.98 0.96 0.98 0.96 0.92 0.90 0.88 0.89 0.87 0.92 0.97 0.97 0.96 0.93 0.90 0.90 0.87 0.86 0.85 0.85 0.83 0.80 0.83 0.92 0.97 1.02 1.05 1.08 1.13 1.21
0.84 0.95 1.00 1.01 1.00 0.98 0.95 0.88 0.84 0.84 0.84 0.88 0.88 0.89 0.89 0.89 0.87 0.87 0.84 0.84 0.85 0.85 0.85 0.83 0.80 0.88 0.96 1.06 1.14 1.17 1.21 1.27
0.82 0.88 0.96 0.99 1.01 1.01 0.98 0.92 0.87 0.82 0.81 0.83 0.81 0.82 0.84 0.85 0.84 0.86 0.85 0.84 0.84 0.87 0.88 0.86 0.80 0.79 0.95 1.10 1.19 1.25 1.26 1.30
0.72 0.82 0.87 0.95 0.98 1.02 1.01 0.97 0.93 0.89 0.82 0.81 0.79 0.79 0.82 0.84 0.83 0.85 0.85 0.86 0.90 0.97 0.96 0.89 0.86 0.81 0.87 1.08 1.17 1.24 1.25 1.29
0.69 0.75 0.83 0.87 0.91 0.96 0.99 0.98 0.95 0.91 0.86 0.82 0.84 0.83 0.83 0.84 0.84 0.88 0.90 0.90 0.91 0.97 0.99 0.97 0.92 0.87 0.88 1.10 1.18 1.21 1.22 1.27
0.67 0.72 0.77 0.83 0.88 0.90 0.92 0.90 0.95 0.91 0.88 0.84 0.80 0.80 0.80 0.80 0.82 0.85 0.87 0.91 0.90 0.95 0.97 1.01 1.02 0.98 0.99 1.07 1.16 1.16 1.25 1.27
0.64 0.70 0.71 0.77 0.78 0.85 0.87 0.86 0.87 0.91 0.92 0.91 0.84 0.78 0.78 0.81 0.81 0.86 0.88 0.90 0.92 0.93 0.95 0.97 1.00 1.05 1.11 1.17 1.21 1.20 1.24 1.26
0.66 0.68 0.71 0.72 0.71 0.75 0.78 0.82 0.84 0.87 0.89 0.91 0.90 0.83 0.84 0.83 0.87 0.88 0.91 0.92 0.91 0.93 0.94 0.95 0.95 1.01 1.02 1.09 1.17 1.21 1.22 1.21
0.63 0.66 0.73 0.71 0.69 0.69 0.72 0.74 0.80 0.80 0.83 0.88 0.90 0.87 0.84 0.87 0.87 0.89 0.92 0.97 0.96 0.91 0.91 0.95 0.94 0.95 0.91 0.94 1.00 1.07 1.13 1.13
0.77 0.70 0.71 0.70 0.72 0.71 0.69 0.69 0.71 0.74 0.79 0.82 0.85 0.87 0.86 0.88 0.87 0.90 0.96 0.95 0.98 0.98 0.87 0.81 0.84 0.84 0.87 0.90 0.95 0.99 0.99 1.00
0.85 0.79 0.69 0.70 0.73 0.78 0.77 0.76 0.73 0.71 0.74 0.76 0.79 0.83 0.86 0.87 0.90 0.91 0.97 0.94 0.93 0.94 0.89 0.84 0.80 0.85 0.86 0.90 0.94 0.96 0.97 1.01
1.00 0.88 0.80 0.74 0.75 0.81 0.83 0.82 0.83 0.83 0.76 0.76 0.79 0.81 0.83 0.84 0.89 0.94 0.98 0.96 0.92 0.92 0.87 0.90 0.85 0.83 0.86 0.88 0.92 0.98 1.01 1.01
1.02 0.99 0.92 0.84 0.74 0.70 0.76 0.72 0.80 0.83 0.84 0.83 0.85 0.90 0.91 0.88 0.87 0.90 0.98 0.94 0.92 0.92 0.91 0.85 0.83 0.91 0.86 0.83 0.87 0.93 0.92 0.94
1.02 1.01 1.04 0.95 0.81 0.73 0.76 0.81 0.84 0.86 0.88 0.85 0.87 0.90 0.93 0.93 0.89 0.87 0.92 0.95 0.94 0.93 0.91 0.86 0.87 0.95 0.83 0.83 0.67 0.73 0.80 0.87
1.04 1.05 1.04 1.08 0.91 0.84 0.81 0.88 0.92 0.88 0.85 0.86 0.88 0.93 0.95 0.97 0.95 0.93 0.93 0.94 0.89 0.91 0.91 0.88 0.80 0.92 0.97 0.86 0.68 0.57 0.66 0.76
1.04 1.09 1.07 1.06 1.12 0.97 0.76 0.64 0.63 0.72 0.79 0.87 0.91 0.97 0.98 1.00 1.00 0.98 0.93 0.93 0.90 0.87 0.92 0.87 0.89 0.76 0.90 0.95 0.93 0.83 0.65 0.58
1.09 1.14 1.14 1.11 1.08 1.01 0.92 0.82 0.70 0.72 0.84 0.85 0.90 0.93 0.97 0.98 1.00 1.00 0.97 0.96 0.93 0.92 0.92 0.90 0.92 0.87 0.84 0.86 0.89 0.89 0.90 0.78
0.96 1.15 1.17 1.21 1.16 1.09 1.01 0.91 0.86 0.82 0.77 0.78 0.81 0.87 0.91 0.95 0.96 0.97 0.96 0.97 0.93 0.94 0.97 0.97 0.95 0.93 0.92 0.89 0.84 0.79 0.77 0.81
0.92 1.15 1.20 1.36 1.27 1.24 1.17 1.06 0.97 0.89 0.89 0.83 0.82 0.85 0.88 0.88 0.94 0.98 0.98 0.98 0.96 0.98 1.00 1.00 0.98 0.95 0.92 0.89 0.92 0.88 0.90 0.87
0.81 0.96 1.13 1.20 1.30 1.29 1.34 1.27 1.06 0.95 0.96 0.93 0.92 0.91 0.90 0.94 0.95 0.98 0.98 0.99 0.98 0.99 0.98 0.99 1.02 0.98 0.94 0.96 0.95 0.91 0.95 0.93

GFSFLT2_prec_pwat_246.txt.gz
Precipitable_Water
1.04 1.07 1.06 1.02 0.95 0.91 0.84 0.80 0.86 0.89 0.94 0.95 0.94 0.89 0.88 0.90 0.92 0.89 0.87 0.84 0.83 0.89 0.92 0.94 0.95 0.94 0.97 0.93 0.97 1.02 1.10 1.19
0.98 1.04 1.06 1.02 0.97 0.93 0.85 0.82 0.84 0.88 0.89 0.92 0.89 0.88 0.88 0.89 0.90 0.85 0.81 0.80 0.79 0.86 0.89 0.90 0.91 0.91 0.93 0.94 1.02 1.11 1.17 1.22
0.94 0.99 1.01 1.02 0.98 0.96 0.91 0.85 0.85 0.89 0.91 0.89 0.90 0.89 0.87 0.88 0.86 0.85 0.81 0.78 0.78 0.78 0.82 0.86 0.90 0.90 0.97 1.03 1.10 1.15 1.19 1.21
0.86 0.93 0.96 1.00 1.01 0.98 0.95 0.91 0.88 0.86 0.92 0.94 0.91 0.88 0.87 0.85 0.85 0.83 0.82 0.80 0.81 0.80 0.80 0.82 0.87 0.92 1.00 1.10 1.13 1.18 1.18 1.20
0.81 0.88 0.92 0.95 0.97 0.99 0.97 0.93 0.88 0.86 0.86 0.89 0.91 0.89 0.88 0.84 0.82 0.82 0.81 0.81 0.80 0.83 0.85 0.84 0.82 0.89 0.98 1.09 1.13 1.16 1.21 1.24
0.74 0.84 0.87 0.91 0.97 0.96 0.96 0.93 0.87 0.82 0.83 0.84 0.83 0.80 0.79 0.80 0.78 0.79 0.78 0.79 0.78 0.83 0.84 0.86 0.86 0.87 0.93 1.02 1.09 1.14 1.22 1.26
0.69 0.78 0.79 0.85 0.90 0.92 0.93 0.91 0.87 0.84 0.81 0.81 0.82 0.76 0.72 0.77 0.78 0.78 0.78 0.80 0.79 0.82 0.88 0.89 0.88 0.87 0.89 0.95 1.04 1.10 1.18 1.20
0.74 0.75 0.78 0.81 0.82 0.85 0.85 0.90 0.88 0.85 0.83 0.80 0.80 0.78 0.74 0.74 0.75 0.77 0.78 0.81 0.83 0.85 0.86 0.91 0.92 0.94 0.90 0.91 0.93 1.04 1.12 1.14
0.73 0.75 0.80 0.78 0.79 0.82 0.83 0.84 0.87 0.83 0.82 0.83 0.82 0.81 0.78 0.77 0.76 0.77 0.79 0.84 0.86 0.88 0.89 0.92 0.91 0.95 0.92 0.92 0.91 0.94 1.00 1.02
0.78 0.77 0.76 0.77 0.78 0.79 0.81 0.81 0.80 0.80 0.83 0.85 0.83 0.82 0.81 0.80 0.79 0.77 0.82 0.85 0.85 0.84 0.83 0.81 0.84 0.85 0.83 0.85 0.88 0.91 0.91 0.91
0.80 0.81 0.77 0.77 0.80 0.81 0.80 0.81 0.78 0.78 0.79 0.83 0.86 0.84 0.82 0.78 0.76 0.79 0.82 0.82 0.82 0.82 0.83 0.82 0.76 0.76 0.76 0.78 0.79 0.79 0.79 0.81
0.99 0.88 0.84 0.84 0.83 0.83 0.81 0.77 0.79 0.80 0.75 0.75 0.80 0.85 0.85 0.81 0.79 0.77 0.81 0.80 0.81 0.83 0.81 0.84 0.83 0.82 0.84 0.81 0.79 0.76 0.79 0.83
1.18 1.05 0.94 0.88 0.80 0.74 0.74 0.66 0.71 0.74 0.75 0.74 0.73 0.77 0.80 0.81 0.80 0.81 0.81 0.78 0.78 0.82 0.84 0.81 0.80 0.87 0.82 0.79 0.79 0.83 0.81 0.83
1.09 1.20 1.10 1.01 0.88 0.81 0.80 0.77 0.75 0.72 0.73 0.72 0.70 0.69 0.73 0.74 0.73 0.74 0.76 0.76 0.78 0.80 0.82 0.80 0.84 0.91 0.78 0.78 0.62 0.67 0.77 0.83
0.94 1.08 1.21 1.15 1.07 0.97 0.86 0.83 0.80 0.72 0.67 0.65 0.66 0.70 0.68 0.69 0.69 0.70 0.72 0.74 0.70 0.75 0.78 0.79 0.74 0.87 0.94 0.84 0.66 0.56 0.66 0.77
0.87 0.92 1.08 1.22 1.27 1.10 0.93 0.71 0.64 0.67 0.66 0.66 0.66 0.71 0.68 0.68 0.68 0.69 0.70 0.71 0.68 0.69 0.76 0.77 0.82 0.74 0.89 0.95 0.94 0.85 0.66 0.57
0.76 0.85 0.97 1.03 1.19 1.22 1.09 0.94 0.81 0.77 0.80 0.73 0.69 0.71 0.74 0.73 0.76 0.73 0.69 0.72 0.73 0.74 0.77 0.79 0.83 0.80 0.79 0.83 0.88 0.90 0.90 0.79
0.49 0.73 0.77 0.89 0.99 1.07 1.12 1.04 0.99 0.93 0.88 0.82 0.73 0.69 0.73 0.77 0.79 0.80 0.78 0.76 0.77 0.81 0.87 0.87 0.88 0.90 0.91 0.89 0.84 0.80 0.76 0.78
0.62 0.51 0.70 0.80 0.85 0.86 0.91 0.98 1.11 1.08 1.04 0.99 0.88 0.84 0.79 0.75 0.77 0.79 0.82 0.83 0.86 0.90 0.92 0.93 0.93 0.92 0.92 0.93 0.97 0.91 0.91 0.89
0.67 0.68 0.67 0.86 0.89 0.89 0.92 1.00 1.08 1.21 1.25 1.19 1.10 0.95 0.89 0.93 0.90 0.93 0.91 0.93 0.95 0.97 0.97 0.97 1.00 0.99 0.98 0.97 0.95 0.95 0.95 0.93